Regional Weather Roundup
Issued by NWS

Home | Current Version | Previous Version | Graphics & Text | Print | Product List | Glossary On
Versions: 1 2 3 4 5 6 7 8 9 10 11 12 13 14 15 16 17 18 19 20 21 22 23 24 25 26 27 28 29 30 31 32 33 34 35 36 37 38 39 40 41 42 43 44 45 46 47 48 49 50
000
ASUS43 KMPX 261201
RWRMN
WEATHER ROUNDUP FOR MINNESOTA
NATIONAL WEATHER SERVICE TWIN CITIES/CHANHASSEN MN
700 AM CDT TUE JUL 26 2016


NOTE: "FAIR" INDICATES FEW OR NO CLOUDS BELOW 12,000 FEET WITH NO
SIGNIFICANT WEATHER AND/OR OBSTRUCTIONS TO VISIBILITY. N/A MEANS
CURRENT SKY AND/OR WEATHER CONDITIONS ARE NOT AVAILABLE.

MNZ060>063-068>070-261300-
   Twin Cities Metro

CITY           SKY/WX    TMP DP  RH WIND       PRES   REMARKS
TWIN CITIES    MOSUNNY   72  64  76 SW5       30.05R
6HR MIN TEMP:  72; 6HR MAX TEMP:  76;

ST PAUL        MOSUNNY   70  66  87 SE6       30.05R
CRYSTAL        SUNNY     71  64  78 S5        30.03R
BLAINE         MOSUNNY   73  66  78 SW6       30.04R
LAKEVILLE      SUNNY     66  66 100 CALM      30.06R
EDEN PRAIRIE   PTCLDY    70  65  84 SW8       30.04R
6HR MIN TEMP:  69; 6HR MAX TEMP:  73;

LAKEVILLE      SUNNY     66  66 100 CALM      30.06R
SOUTH ST PAUL  MOSUNNY   70  65  84 CALM      30.05R
LAKE ELMO      FAIR      66  64  94 S3        30.06R
$$
MNZ001>005-007-008-013>017-022>024-027-028-261300-
   Northwest Minnesota

CITY           SKY/WX    TMP DP  RH WIND       PRES   REMARKS
BEMIDJI        CLOUDY    66  64  94 CALM      29.97S
HALLOCK        CLEAR     63  61  94 NW5       29.95R
ROSEAU         CLEAR     61  55  82 CALM      29.96S
WARROAD        CLEAR     63  57  82 CALM      29.98R
THIEF RVR FALL CLEAR     68  63  84 E8        29.96S
CROOKSTON      CLOUDY    70  66  88 E5        29.94R
FOSSTON        CLOUDY    66  63  88 E3        29.97R
DETROIT LAKES  TSTM      72  61  68 W14G21    29.99R
MOORHEAD       TSTM      68  64  88 SW7       29.96R
PARK RAPIDS    LGT RAIN  69  63  81 SW6       29.97S
MAHNOMEN       FAIR      67  63  85 S6        29.96R
$$
MNZ006-009>011-018-025>026-261300-
   North Central Minnesota

CITY           SKY/WX    TMP DP  RH WIND       PRES   REMARKS
BAUDETTE       SUNNY     61  61 100 CALM      29.97R
FLAG ISLAND    SUNNY     70  63  78 N5        29.96R
INTL FALLS     SUNNY     64  62  93 CALM      29.97R
6HR MIN TEMP:  57; 6HR MAX TEMP:  65;

WASKISH        MOSUNNY   66  64  94 CALM      29.97R
BIG FORK       MOSUNNY   66  63  88 E3        29.98R
LONGVILLE      MOSUNNY   66  64  94 CALM      29.98S
GRAND RAPIDS   SUNNY     68  65  90 CALM      30.01
CRANE LAKE     CLOUDY    63  63 100 CALM      29.98F
ORR            SUNNY     64  61  88 SE5       29.96S
COOK           MOSUNNY   66  64  94 SW3       30.01R THUNDER
WALKER         FAIR      67  63  88 CALM      29.98R
$$
MNZ012-019>021-037-261300-
   Northeast Minnesota

CITY           SKY/WX    TMP DP  RH WIND       PRES   REMARKS
DULUTH         CLOUDY    70  64  81 W13       30.00S
6HR MIN TEMP:  66; 6HR MAX TEMP:  71;

ELY            MOSUNNY   63  63 100 CALM      29.99F FOG
HIBBING        CLOUDY    63  62  97 SE3       29.99F
EVELETH        CLOUDY    65  63  93 CALM      30.00F
DULUTH HARBOR  CLOUDY    72  66  83 SW8       29.98S
TWO HARBORS    CLOUDY    70  64  83 CALM      29.99S
SILVER BAY     CLOUDY    66  64  94 CALM      29.99S
GRAND MARAIS     N/A     61  60  97 W5        29.99R
G MARAIS ARPRT LGT RAIN  63  57  82 W6        30.04S
$$
MNZ029>031-032-039>041-046>048-054>057-064-261300-
   West Central Minnesota

CITY           SKY/WX    TMP DP  RH WIND       PRES   REMARKS
FERGUS FALLS   CLOUDY    70  63  78 S7        30.00S
WHEATON        CLOUDY    73  64  73 SW5       30.01R
MORRIS         PTCLDY    66  64  94 SE6       30.00R
ALEXANDRIA     CLOUDY    70  62  76 SW13      30.04R
ELBOW LAKE     DRIZZLE   67  64  93 SE10      30.01S
WADENA         LGT RAIN  68  63  83 SW10      29.99R
GLENWOOD       CLOUDY    66  63  88 SW5       30.04R
APPLETON       CLEAR     70  63  78 SW3       30.00R
BENSON         CLEAR     66  61  82 CALM      30.02R
ORTONVILLE     PTCLDY    72  63  73 CALM      30.00R
MADISON        CLEAR     66  63  88 SW7       29.99F
WILLMAR        FAIR      68  64  88 CALM      30.03S
$$
MNZ033>034-036-042>043-049>051-058-059-261300-
   Central Minnesota

CITY           SKY/WX    TMP DP  RH WIND       PRES   REMARKS
ST CLOUD       PTCLDY    68  66  93 S7        30.02R
6HR MIN TEMP:  66; 6HR MAX TEMP:  69;

SAUK CENTRE    PTSUNNY   68  64  86 SW3       30.03R
PAYNESVILLE    CLEAR     69  64  84 SW6       30.03R
AITKIN         MOSUNNY   75  61  60 SW6       29.99R
PINE RIVER     PTCLDY    66  64  94 S3        30.01S
BRAINERD       PTCLDY    70  64  81 S12       29.99S
STAPLES        CLOUDY    68  63  83 SW9       29.99S
LONG PRAIRIE   FAIR      68  63  83 S7        30.03R
LITTLE FALLS   PTCLDY    68  63  83 S5        30.02R
LITCHFIELD     CLEAR     70  66  88 S3        30.04R
BUFFALO        CLEAR     69  64  84 S3        30.04S
MAPLE LAKE     PTCLDY    69  66  90 S3        30.04S
HUTCHINSON     CLEAR     67  65  93 CALM      30.05S
$$
MNZ037-044-045-052-053-261300-
   East Central Minnesota

CITY           SKY/WX    TMP DP  RH WIND       PRES   REMARKS
PRINCETON      SUNNY     70  64  83 S3        30.02S
MORA           SUNNY     64  64 100 CALM      30.04R
CAMBRIDGE      MOSUNNY   72  63  73 S5        30.02R
RUSH CITY      MOSUNNY   68  65  90 S3        30.03R
MOOSE LAKE     MOSUNNY   64  63  94 CALM      29.99S
HINCKLEY       CLOUDY    66  66 100 CALM      30.02R
CLOQUET        CLOUDY    68  63  83 SW7       30.00S
MCGREGOR       MOSUNNY   70  64  83 S3        30.00R
$$
MNZ071>073-080-081-089-090-097-098-261300-
   Southwest Minnesota

CITY           SKY/WX    TMP DP  RH WIND       PRES   REMARKS
MONTEVIDEO     CLEAR     70  64  83 SW8       30.02S
GRANITE FALLS  CLEAR     67  65  94 S6        30.04R
CANBY          CLEAR     74  62  67 SW9G18    30.01S
MARSHALL       CLEAR     73  64  73 SW17      30.02R
REDWOOD FALLS  CLEAR     67  62  84 S8        30.03S
OLIVIA         CLEAR     68  63  83 SW6       30.02S
PIPESTONE      CLEAR     66  63  88 SW7       30.08R
WINDOM         CLEAR     70  63  78 SW9       30.07S
WORTHINGTON    CLEAR     70  64  81 MISG      30.09R
JACKSON        CLEAR     68  61  77 SW5       30.09S
TRACY          CLEAR     71  65  82 SW15      30.04S
SLAYTON        CLEAR     67  63  88 SW7       30.08R
$$
MNZ065>067-074>077-082>085-091>093-261300-
   South Central Minnesota

CITY           SKY/WX    TMP DP  RH WIND       PRES   REMARKS
MANKATO        CLEAR     66  61  82 S6        30.06S
NEW ULM        CLEAR     68  64  88 S6        30.05R
ST JAMES       CLEAR     63  61  94 CALM      30.06S
FAIRMONT       CLEAR     64  61  88 S3        30.07R
GLENCOE        CLEAR     68  66  94 S3        30.04S
FARIBAULT      CLEAR     66  64  94 CALM      30.07S
OWATONNA       CLEAR     68  63  83 S6        30.08R
WASECA         CLEAR     64  61  88 S5        30.09R
ALBERT LEA     CLEAR     68  64  88 SW3       30.09S
$$
MNZ078>079-086>088-094>096-261300-
   Southeast Minnesota

CITY           SKY/WX    TMP DP  RH WIND       PRES   REMARKS
ROCHESTER      SUNNY     66  64  93 SW6       30.09S
6HR MIN TEMP:  63; 6HR MAX TEMP:  67;

RED WING       SUNNY     66  64  94 CALM      30.05S
STANTON        SUNNY     68  63  83 CALM      30.05R
DODGE CENTER   MOSUNNY   70  64  83 SW5       30.09R
WINONA         MOSUNNY   66  64  94 CALM      30.07S
AUSTIN         CLEAR     64  63  94 S5        30.09R
PRESTON        SUNNY     63  61  92 SW6       30.10R
$$
ABBREVIATIONS USED IN REMARKS
   TC - TEMPERATURES IN CELSIUS
  WCI - WIND CHILL INDEX
   HX - HEAT INDEX
  VSB - VISIBILITY
$$




USA.gov is the U.S. government's official web portal to all federal, state and local government web resources and services.